Regional Weather Roundup
Issued by NWS

Home | Current Version | Previous Version | Graphics & Text | Print | Product List | Glossary On
Versions: 1 2 3 4 5 6 7 8 9 10 11 12 13 14 15 16 17 18 19 20 21 22 23 24 25 26 27 28
000
ASUS45 KBOU 211810
RWRCO

WEATHER ROUNDUP FOR COLORADO
NATIONAL WEATHER SERVICE DENVER/BOULDER CO
1100 AM MST TUE NOV 21 2017

NOTE: "FAIR" INDICATES FEW OR NO CLOUDS BELOW 12000 FEET WITH NO
SIGNIFICANT WEATHER AND/OR OBSTRUCTIONS TO VISIBILITY.

COZ001>005-013-030-031-211900-
...NORTHWEST COLORADO...

CITY           SKY/WX    TMP DP  RH WIND       PRES   REMARKS
CRAIG          CLOUDY    42  33  70 W3        30.35R
HAYDEN         CLOUDY    38  33  82 CALM      30.37R
MEEKER         LGT RAIN  42  34  73 CALM      30.38R
RABBIT EARS PA HVY SNOW  28  27  93 W12G22    30.37R VSB<1/4 WCI  18
STEAMBOAT SPGS CLOUDY    34  33  96 CALM      30.36R
WALDEN         CLOUDY    37  30  75 NE3       30.34R
$$

COZ006>008-011-211900-
...WEST CENTRAL VALLEYS...

CITY           SKY/WX    TMP DP  RH WIND       PRES   REMARKS
GRAND JUNCTION FAIR      46  24  42 CALM      30.38S
MONTROSE       FAIR      46  18  32 N6        30.40R
EAGLE          CLOUDY    42  31  64 E7        30.40R
RIFLE          CLOUDY    43  30  60 CALM      30.40R
DELTA          CLOUDY    48  18  30 CALM      30.39S
NUCLA          FAIR      43  10  26 CALM      30.41R
$$

COZ017>023-064>068-211900-
...SOUTHWEST COLORADO...

CITY           SKY/WX    TMP DP  RH WIND       PRES   REMARKS
DURANGO        FAIR      45  16  31 W5        30.30S
CORTEZ         FAIR      62  31  31 N13G22    30.31S
PAGOSA SPRINGS FAIR      45  13  27 SE6       30.31F
TELLURIDE      FAIR      45  31  58 W10G18    30.43R
WOLF CREEK PAS FAIR      32  16  51 NW10G20   30.47S WCI  24
$$

COZ009-010-012-014-032>034-037-058>063-211900-
...CENTRAL COLORADO...

CITY           SKY/WX    TMP DP  RH WIND       PRES   REMARKS
ASPEN          CLOUDY    35  29  78 NW3       30.41R
BUENA VISTA    PTSUNNY   50  26  38 W9G20     30.30F
COPPER MTN     SNOW      30  27  86 MISG      30.41R VSB 1/4
BERTHOUD PASS  CLOUDY    21  10  63 NW33G44   30.34S WCI   2
COTTONWOOD PAS PTSUNNY   45  28  53 SW10G21   30.36R
GUNNISON       PTSUNNY   40  27  59 E3        30.40R
KREMMLING      CLOUDY    45  34  65 CALM      30.36R
LEADVILLE      CLOUDY    33  26  75 NW8       30.38S WCI  26
MONARCH PASS     N/A     27  25  93 W20G28    30.53R WCI  13
SALIDA         FAIR      53  25  34 CALM      30.37S
SUNLIGHT       CLOUDY    28  27  93 W6        30.49R FOG     WCI  22
WILKERSON PASS FAIR      32  21  64 N6        30.40S WCI  26
$$

COZ069>075-211900-
...SAN LUIS VALLEY/SANGRE DE CRISTO MOUNTAINS...

CITY           SKY/WX    TMP DP  RH WIND       PRES   REMARKS
ALAMOSA        FAIR      52  27  38 NW8       30.29F
DEL NORTE      CLOUDY    46  19  34 SE6       30.32F
LA VETA PASS   PTSUNNY   34  19  55 NE13G22     N/A  WCI  25
SAGUACHE       FAIR      48  28  46 N16G26    30.32S
$$

COZ035-036-038>040-211900-
...NORTHERN COLORADO FRONT RANGE...

CITY           SKY/WX    TMP DP  RH WIND       PRES   REMARKS
DENVER INTL AP CLOUDY    37  30  75 CALM      30.33R
DMNS CITY PARK   N/A     39  30  70 E7        30.34S
AURORA         CLOUDY    37  30  75 CALM      30.33R
FRONT RANGE AP PTSUNNY   39  34  81 CALM      30.34R
ERIE MUNI ARPT DRIZZLE   40  33  76 CALM      30.40R
BOULDER MUN AP CLOUDY    39  34  81 SE3       30.34S
CENTENNIAL     CLOUDY    37  33  85 CALM      30.33S
BROOMFIELD     CLOUDY    39  34  81 VRB3      30.35R
FORT COLLINS   NOT AVBL
LONGMONT       CLOUDY    42  35  75 E3        30.36S
$$

COZ041-046-047-076>085-087-088-211900-
...PIKES PEAK/PALMER DIVIDE AND SOUTHERN FOOTHILLS...

CITY           SKY/WX    TMP DP  RH WIND       PRES   REMARKS
COLO. SPRINGS  PTSUNNY   46  34  62 N16       30.32R
A. F. ACADEMY  LGT RAIN  40  38  90 N9        30.31S
SCHRIEVER AFB  FAIR      42  33  69 N13       30.32R
CHEYENNE MTN   LGT RAIN  38  35  89 N13       30.26R
ELLICOTT         N/A    N/A N/A N/A NE15      30.29R
FALCON         CLOUDY    39  35  87 N10       30.33R
FORT CARSON    PTSUNNY   48  34  57 NE14G23   30.24S
LIMON          FAIR      42  28  57 N12       30.30S
MONUMENT HILL  CLOUDY    32  32 100 CALM      30.34S
CANON CITY     PTSUNNY   54  36  50 E15G22    30.29R
WALSENBURG     CLOUDY    48  36  61 NE7       30.34R
TRINIDAD       CLOUDY    49  33  54 NE10      30.33R
$$

COZ042>045-048>051-090-091-211900-
...NORTHEAST COLORADO...

CITY           SKY/WX    TMP DP  RH WIND       PRES   REMARKS
GREELEY ARPT   CLOUDY    42  28  57 CALM      30.35R
AKRON          FAIR      40  26  57 N17       30.31F
BURLINGTON     FAIR      44  27  51 N13G21    30.30R
WRAY           NOT AVBL
YUMA           CLOUDY    41  27  56 N14       30.32R
STERLING       CLOUDY    41  30  65 N7        30.33R
HOLYOKE        CLOUDY    41  25  52 N17G23    30.34R
FORT MORGAN    FAIR      44  26  48 NE7       30.33S
$$

COZ086-089-092>099-211900-
...SOUTHEAST COLORADO...

CITY           SKY/WX    TMP DP  RH WIND       PRES   REMARKS
PUEBLO         LGT RAIN  52  37  56 NE15      30.30R
LA JUNTA       CLOUDY    52  30  43 NE14      30.29R
LAMAR          FAIR      48  24  39 NE15      30.27R
SPRINGFIELD      N/A     55  29  36 N26G33    30.24R
$$




USA.gov is the U.S. government's official web portal to all federal, state and local government web resources and services.